Location: Unnamed
(53.9021°N, 27.5568°E)
Time: 19:29:26
(UTC+03:00)

STARLINK-73 - Pass Details

Date: 24 January 2020
Orbit: 528 x 531 km, 53.0° (Epoch: 25 February)

Event Time Altitude Azimuth Distance (km) Brightness Sun altitude
Exits shadow 05:48:30 21° 130° (SE) 1,234 5.8 -29.2°
Drops below altitude 10° 05:51:04 10° 92° (E) 1,781 7.1 -28.8°
Sets 05:53:39 0° 77° (ENE) 2,675 8.4 -28.4°
